Hourly Weather Ludwigsfelde

Today, 10 May, Monday

Time Temperature Precipitation Wind Pressure Humidity
00:00 +17°C° 0 mm 4 mps 751 mmHg 80%
01:00 +15°C° 0 mm 4 mps 751 mmHg 83%
02:00 +14°C° 0 mm 4 mps 751 mmHg 83%
03:00 +13°C° 0 mm 3 mps 751 mmHg 83%
04:00 +12°C° 0 mm 3 mps 751 mmHg 83%
05:00 +13°C° 0 mm 3 mps 751 mmHg 80%
06:00 +14°C° 0 mm 3 mps 751 mmHg 76%
07:00 +16°C° 0 mm 3 mps 751 mmHg 72%
08:00 +18°C° 0 mm 3 mps 751 mmHg 66%
09:00 +20°C° 0 mm 3 mps 751 mmHg 61%
10:00 +22°C° 0 mm 3 mps 751 mmHg 55%
11:00 +25°C° 0 mm 2 mps 751 mmHg 52%
12:00 +26°C° 0 mm 2 mps 751 mmHg 49%
13:00 +27°C° 0 mm 1 mps 751 mmHg 46%
14:00 +28°C° 0 mm 2 mps 751 mmHg 45%
15:00 +28°C° 0 mm 2 mps 751 mmHg 44%
16:00 +28°C° 0 mm 2 mps 751 mmHg 44%
17:00 +26°C° 0.1 mm 2 mps 752 mmHg 55%
18:00 +24°C° 0.1 mm 3 mps 752 mmHg 65%
19:00 +20°C° 0.1 mm 3 mps 752 mmHg 76%
20:00 +19°C° 0 mm 2 mps 752 mmHg 80%
21:00 +18°C° 0 mm 2 mps 752 mmHg 83%
22:00 +17°C° 0 mm 2 mps 752 mmHg 87%
23:00 +16°C° 0 mm 2 mps 752 mmHg 88%

Tomorrow, 11 May, Tuesday

Time Temperature Precipitation Wind Pressure Humidity
00:00 +16°C° 0 mm 2 mps 751 mmHg 89%
01:00 +16°C° 0 mm 2 mps 751 mmHg 90%
02:00 +16°C° 0 mm 2 mps 751 mmHg 91%
03:00 +15°C° 0 mm 2 mps 750 mmHg 91%
04:00 +15°C° 0 mm 2 mps 750 mmHg 91%
05:00 +16°C° 0 mm 3 mps 750 mmHg 87%
06:00 +17°C° 0 mm 3 mps 749 mmHg 84%
07:00 +18°C° 0 mm 3 mps 749 mmHg 80%
08:00 +19°C° 0 mm 3 mps 749 mmHg 74%
09:00 +21°C° 0 mm 3 mps 749 mmHg 68%
10:00 +22°C° 0 mm 3 mps 749 mmHg 62%
11:00 +24°C° 0 mm 3 mps 749 mmHg 61%
12:00 +24°C° 0 mm 3 mps 749 mmHg 60%
13:00 +25°C° 0 mm 2 mps 749 mmHg 58%
14:00 +22°C° 0 mm 3 mps 749 mmHg 66%
15:00 +20°C° 0 mm 4 mps 749 mmHg 73%
16:00 +18°C° 0 mm 4 mps 750 mmHg 81%
17:00 +17°C° 0 mm 4 mps 750 mmHg 83%
18:00 +17°C° 0 mm 3 mps 750 mmHg 84%
19:00 +16°C° 0 mm 3 mps 750 mmHg 86%
20:00 +14°C° 0 mm 3 mps 751 mmHg 87%
21:00 +13°C° 0 mm 3 mps 751 mmHg 88%
22:00 +13°C° 0 mm 3 mps 751 mmHg 90%
23:00 +13°C° 0.6 mm 2 mps 751 mmHg 91%

Day after tomorrow, 12 May, Wednesday

Time Temperature Precipitation Wind Pressure Humidity
00:00 +13°C° 0.6 mm 2 mps 751 mmHg 92%
01:00 +13°C° 0.6 mm 2 mps 751 mmHg 94%
02:00 +12°C° 0.5 mm 2 mps 750 mmHg 94%
03:00 +11°C° 0.5 mm 3 mps 750 mmHg 95%
04:00 +11°C° 0.5 mm 3 mps 750 mmHg 96%
05:00 +11°C° 0.1 mm 3 mps 750 mmHg 95%
06:00 +11°C° 0.1 mm 3 mps 750 mmHg 95%
07:00 +12°C° 0.1 mm 2 mps 750 mmHg 95%
08:00 +12°C° 0 mm 2 mps 750 mmHg 95%
09:00 +12°C° 0 mm 2 mps 750 mmHg 94%
10:00 +12°C° 0 mm 2 mps 751 mmHg 94%
11:00 +13°C° 0 mm 2 mps 751 mmHg 93%
12:00 +13°C° 0 mm 2 mps 751 mmHg 92%
13:00 +13°C° 0 mm 2 mps 751 mmHg 91%
14:00 +12°C° 0 mm 3 mps 751 mmHg 90%
15:00 +12°C° 0 mm 3 mps 751 mmHg 89%
16:00 +12°C° 0 mm 3 mps 751 mmHg 89%
17:00 +12°C° 0 mm 3 mps 750 mmHg 90%
18:00 +12°C° 0 mm 3 mps 750 mmHg 91%
19:00 +12°C° 0 mm 3 mps 750 mmHg 92%
20:00 +12°C° 0.3 mm 3 mps 750 mmHg 94%
21:00 +11°C° 0.3 mm 3 mps 750 mmHg 96%
22:00 +11°C° 0.3 mm 3 mps 750 mmHg 97%
23:00 +11°C° 0.2 mm 3 mps 750 mmHg 98%

13 May, Thursday

Time Temperature Precipitation Wind Pressure Humidity
00:00 +11°C° 0.2 mm 3 mps 749 mmHg 98%
01:00 +12°C° 0.2 mm 3 mps 749 mmHg 98%
02:00 +12°C° 0 mm 3 mps 749 mmHg 98%
03:00 +12°C° 0 mm 3 mps 749 mmHg 97%
04:00 +12°C° 0 mm 3 mps 748 mmHg 97%
05:00 +12°C° 0 mm 3 mps 748 mmHg 94%
06:00 +13°C° 0 mm 3 mps 748 mmHg 90%
07:00 +14°C° 0 mm 2 mps 748 mmHg 86%
08:00 +16°C° 0 mm 3 mps 748 mmHg 77%
09:00 +17°C° 0 mm 3 mps 748 mmHg 68%
10:00 +19°C° 0 mm 3 mps 748 mmHg 59%
11:00 +20°C° 0 mm 3 mps 748 mmHg 53%
12:00 +20°C° 0 mm 4 mps 748 mmHg 47%
13:00 +21°C° 0 mm 4 mps 747 mmHg 42%
14:00 +21°C° 0 mm 4 mps 747 mmHg 42%
15:00 +21°C° 0 mm 4 mps 747 mmHg 41%
16:00 +21°C° 0 mm 3 mps 747 mmHg 41%
17:00 +20°C° 0 mm 3 mps 747 mmHg 48%
18:00 +19°C° 0 mm 2 mps 747 mmHg 55%
19:00 +18°C° 0 mm 2 mps 747 mmHg 62%
20:00 +17°C° 0 mm 2 mps 747 mmHg 68%
21:00 +16°C° 0 mm 2 mps 748 mmHg 73%
22:00 +15°C° 0 mm 2 mps 748 mmHg 78%
23:00 +14°C° 0.1 mm 2 mps 748 mmHg 80%

14 May, Friday

Time Temperature Precipitation Wind Pressure Humidity
00:00 +14°C° 0.1 mm 2 mps 748 mmHg 83%
01:00 +13°C° 0.1 mm 2 mps 748 mmHg 86%
02:00 +13°C° 0 mm 2 mps 748 mmHg 86%
03:00 +12°C° 0 mm 2 mps 748 mmHg 86%
04:00 +12°C° 0 mm 2 mps 748 mmHg 87%
05:00 +12°C° 0 mm 2 mps 749 mmHg 84%
06:00 +12°C° 0 mm 2 mps 749 mmHg 82%
07:00 +13°C° 0 mm 2 mps 749 mmHg 79%
08:00 +13°C° 0 mm 2 mps 749 mmHg 78%
09:00 +13°C° 0 mm 2 mps 750 mmHg 76%
10:00 +13°C° 0 mm 2 mps 750 mmHg 74%
11:00 +13°C° 0 mm 2 mps 750 mmHg 75%
12:00 +13°C° 0 mm 2 mps 751 mmHg 76%
13:00 +13°C° 0 mm 2 mps 751 mmHg 78%
14:00 +13°C° 0 mm 2 mps 751 mmHg 77%
15:00 +13°C° 0 mm 3 mps 752 mmHg 76%
16:00 +13°C° 0 mm 3 mps 752 mmHg 75%
17:00 +13°C° 0 mm 3 mps 752 mmHg 80%
18:00 +13°C° 0 mm 2 mps 752 mmHg 85%
19:00 +12°C° 0 mm 2 mps 752 mmHg 89%
20:00 +12°C° 0 mm 2 mps 753 mmHg 89%
21:00 +12°C° 0 mm 2 mps 753 mmHg 90%
22:00 +12°C° 0 mm 2 mps 753 mmHg 90%
23:00 +10°C° 0 mm 2 mps 753 mmHg 90%

15 May, Saturday

Time Temperature Precipitation Wind Pressure Humidity
00:00 +10°C° 0 mm 2 mps 753 mmHg 91%
01:00 +10°C° 0 mm 2 mps 753 mmHg 92%
02:00 +10°C° 0 mm 2 mps 753 mmHg 92%
03:00 +10°C° 0 mm 2 mps 753 mmHg 92%
04:00 +9°C° 0 mm 2 mps 753 mmHg 92%
05:00 +10°C° 0 mm 2 mps 753 mmHg 89%
06:00 +10°C° 0 mm 2 mps 754 mmHg 86%
07:00 +12°C° 0 mm 2 mps 754 mmHg 83%
08:00 +13°C° 0 mm 2 mps 754 mmHg 77%
09:00 +12°C° 0 mm 3 mps 754 mmHg 72%
10:00 +13°C° 0 mm 3 mps 754 mmHg 66%
11:00 +16°C° 0 mm 3 mps 754 mmHg 59%
12:00 +17°C° 0 mm 3 mps 754 mmHg 52%
13:00 +19°C° 0 mm 3 mps 754 mmHg 45%
14:00 +19°C° 0 mm 3 mps 754 mmHg 45%
15:00 +19°C° 0 mm 3 mps 753 mmHg 45%
16:00 +19°C° 0 mm 2 mps 753 mmHg 46%
17:00 +18°C° 0 mm 2 mps 753 mmHg 52%
18:00 +17°C° 0 mm 2 mps 753 mmHg 58%
19:00 +16°C° 0 mm 2 mps 753 mmHg 64%
20:00 +15°C° 0 mm 1 mps 753 mmHg 69%
21:00 +13°C° 0 mm 1 mps 753 mmHg 73%
22:00 +12°C° 0 mm 1 mps 754 mmHg 77%
23:00 +11°C° 0 mm 1 mps 754 mmHg 80%
Show more

We Need Your Consent

Meteoprog and our Service Providers may store and access personal data such as cookies, device identifiers or other similar technologies on your device and process such data to personalise content and ads, as well as provide social media features and to analyse the traffic.

  • Store and/or access information on your device

    Cookies, device identifiers or other information can be stored or accessed on your device for the purposes indicated above.

  • Personalised ads and content, ad and content measurement, audience insights, and products development

    Ads and content can be personalised based on a profile. More data can be added to better personalise ads and content. Ad and content performance can be measured. Insights about the audience who saw the ads and content can be derived. Such data can be used to develop or improve user’s experience, systems and software.

By clicking ‘I Agree’ you will allow the use of indicated cookies, device identifiers, web beacons or other similar technologies. Your settings can be changed in the browser on your device.

For certain purposes, legitimate interests may be relied on, rather than consent. You can read more about this in our Privacy and Cookie Policy.